Regional Weather Roundup
Issued by NWS

Home | Current Version | Previous Version | Text Only | Print | Product List | Glossary Off
Versions: 1 2 3 4 5 6 7 8 9 10 11 12 13 14 15 16 17 18 19 20 21 22 23 24 25 26 27

000
ASUS45 KBOU 271407
RWRCO

WEATHER ROUNDUP FOR COLORADO
NATIONAL WEATHER SERVICE DENVER/BOULDER CO
700 AM MST MON FEB 27 2017

NOTE: "FAIR" INDICATES FEW OR NO CLOUDS BELOW 12000 FEET WITH NO
SIGNIFICANT WEATHER AND/OR OBSTRUCTIONS TO VISIBILITY.

COZ001>005-013-030-031-271500-
...NORTHWEST COLORADO...

CITY           SKY/WX    TMP DP  RH WIND       PRES   REMARKS
CRAIG          CLOUDY    32  19  58 W6G17     29.62F WCI  26
HAYDEN         FAIR      28  14  54 S5        29.62F WCI  23
MEEKER         CLOUDY    28  21  75 NE5       29.63F WCI  23
MOUNT WERNER   NOT AVBL
STEAMBOAT SPGS CLOUDY    19  10  68 CALM      29.63F
WALDEN         NOT AVBL
$$

COZ006>008-011-271500-
...WEST CENTRAL VALLEYS...

CITY           SKY/WX    TMP DP  RH WIND       PRES   REMARKS
GRAND JUNCTION CLOUDY    39  24  55 SE12      29.69S
MONTROSE       MOCLDY    31  11  43 E13       29.76F WCI  21
EAGLE          MOCLDY    19   9  63 CALM      29.70F
RIFLE          CLOUDY    32  18  56 NW5       29.67F WCI  27
DELTA          CLOUDY    37  20  51 CALM      29.75S
NUCLA          CLOUDY    34  25  69 S9        29.80F WCI  26
$$

COZ017>023-064>068-271500-
...SOUTHWEST COLORADO...

CITY           SKY/WX    TMP DP  RH WIND       PRES   REMARKS
DURANGO        CLOUDY    27  23  85 E3        29.86S
CORTEZ         CLOUDY    35  23  61 SW5       29.83S WCI  31
PAGOSA SPRINGS LGT SNOW  24  24  97 CALM      29.87R VSB 3/4
TELLURIDE      FAIR      25  13  60 SE15G25   29.76S WCI  13
WOLF CREEK PAS HVY SNOW  10  10 100 S24G43    29.79R VSB 1/4 WCI -10
$$

COZ009-010-012-014-032>034-037-058>063-271500-
...CENTRAL COLORADO...

CITY           SKY/WX    TMP DP  RH WIND       PRES   REMARKS
ASPEN          CLOUDY    21  11  65 NW6       29.67F WCI  13
BUENA VISTA    FAIR      19   6  56 W3        29.74S
COPPER MTN     MOCLDY    14   3  62 MISG      29.64F
BERTHOUD PASS  LGT SNOW   7  -4  61 W46G67    29.55S WCI -21
COTTONWOOD PAS FAIR      21   5  49 CALM      29.70S
GUNNISON       FAIR       2  -3  80 SE3       29.82F
KREMMLING      MOCLDY    19  10  68 CALM      29.69F
LEADVILLE      FAIR      13   1  59 SE10      29.66F WCI   0
MONARCH PASS     N/A      7   3  85 SW29      29.78F WCI -16
SALIDA         FAIR      26  10  50 SW9       29.83F WCI  17
SUNLIGHT       NOT AVBL
WILKERSON PASS FAIR       9   3  78 SW17G26   29.66S WCI -10
$$

COZ069>075-271500-
...SAN LUIS VALLEY/SANGRE DE CRISTO MOUNTAINS...

CITY           SKY/WX    TMP DP  RH WIND       PRES   REMARKS
ALAMOSA        FAIR      24  18  77 S9        29.80S WCI  14
LA VETA PASS   MOCLDY    19  14  79 S23G47    29.74S WCI   2
SAGUACHE       FAIR      12   3  67 NW13      29.81F WCI  -3
$$

COZ035-036-038>040-271500-
...NORTHERN COLORADO FRONT RANGE...

CITY           SKY/WX    TMP DP  RH WIND       PRES   REMARKS
DENVER INTL AP FAIR      19   6  57 S14       29.66F WCI   6
DMNS CITY PARK   N/A     19   8  63 S3        29.66F
AURORA         PTCLDY    22   6  51 SE10      29.67F WCI  11
FRONT RANGE AP NOT AVBL
ERIE MUNI ARPT FAIR      14  10  85 CALM      29.67F
BOULDER MUN AP FAIR      19  12  73 CALM      29.66F
CENTENNIAL     FAIR      27   8  44 S13       29.65F WCI  16
BROOMFIELD     PTCLDY    19  10  68 CALM      29.66F
FORT COLLINS   FAIR      17  12  80 E3        29.69S
LONGMONT       NOT AVBL
$$

COZ041-046-047-076>085-087-088-271500-
...PIKES PEAK/PALMER DIVIDE AND SOUTHERN FOOTHILLS...

CITY           SKY/WX    TMP DP  RH WIND       PRES   REMARKS
COLO. SPRINGS  FAIR      21   0  39 NE6       29.70S WCI  13
A. F. ACADEMY  FAIR      23  -1  35 VRB3      29.68S
SCHRIEVER AFB  FAIR      22   0  38 N10       29.71S WCI  11
ELLICOTT       NOT AVBL
FALCON         FAIR      22   0  39 N7        29.70S WCI  13
FORT CARSON    FAIR      20   1  43 E7        29.70R WCI  11
LIMON          FAIR       5   3  91 CALM      29.73S
MONUMENT HILL  FAIR      30   5  34 W8G23     29.69F WCI  23
TRINIDAD       FAIR      17   4  56 NW8       29.75R WCI   7
$$

COZ042>045-048>051-090-091-271500-
...NORTHEAST COLORADO...

CITY           SKY/WX    TMP DP  RH WIND       PRES   REMARKS
GREELEY ARPT   NOT AVBL
AKRON          FAIR      21  10  62 SW10      29.70F WCI  10
BURLINGTON     FAIR      20  15  81 W10       29.74F WCI   9
WRAY           NOT AVBL
STERLING       FAIR      16  12  86 CALM      29.71S
HOLYOKE        FAIR      21  16  79 SW6       29.75F WCI  14
FORT MORGAN    FAIR      16  12  84 W3        29.71S
$$

COZ086-089-092>099-271500-
...SOUTHEAST COLORADO...

CITY           SKY/WX    TMP DP  RH WIND       PRES   REMARKS
PUEBLO         FAIR      11  -1  58 CALM      29.74R
LA JUNTA       FAIR      16   7  67 NW6       29.76S WCI   7
LAMAR          FAIR      11   6  81 SW6       29.77R WCI   1
SPRINGFIELD      N/A     21   9  59 W5        29.76R WCI  15
$$




USA.gov is the U.S. government's official web portal to all federal, state and local government web resources and services.